Zurück zum Katalog

STARLINK-35852

AktivKommunikationVLEO
NORAD 66889·PAYLOAD·🇺🇸 United States

Gestartet Dec 4, 2025 von Vandenberg Space Force Base

Loading…

Nächste Überflüge (nächste 24 Stunden)

TLE

AktuellSource: CelesTrak SupGP

Epoche: Sep 15, 2026, 02:50 UTC

1 66889C 25283M   26258.11854167 -.00058652  00000+0 -17328-2 0  2581
2 66889  53.1585 220.7259 0001422  86.6422  29.2034 15.34421605    12

Verfolge STARLINK-35852 in Echtzeit mit AllMySat

Download on the App Store